977  
ASUS41 KBTV 192110  
RWRBTV  
VERMONT REGIONAL WEATHER ROUNDUP  
NATIONAL WEATHER SERVICE BURLINGTON VT  
400 PM EST TUE FEB 19 2019  
 
NOTE: "FAIR" INDICATES FEW OR NO CLOUDS BELOW 12,000 FEET WITH NO  
SIGNIFICANT WEATHER AND/OR S TO VISIBILITY
.  
 
* THESE REPORTS ARE NOT UNDER NWS QUALITY CONTROL AND/OR DO NOT  
REPORT WEATHER SUCH AS PRECIPITATION AND FOG.
 
 
VTZ001>019-192200-  
_____VERMONT_____  
 
 
CITY SKY/WX TMP DP RH WIND PRES REMARKS
 
BURLINGTON FAIR 19 -5 34 N8 30.53S WCI 9  
MONTPELIER FAIR 15 -3 44 N12 30.47S WCI 2  
MORRISVILLE FAIR 16 -5 39 NW9G17 30.48F WCI 4  
ST. JOHNSBURY* N/A 17 -7 34 MISG 30.45S  
LYNDONVILLE* MIX PCPN 14 -10 34 W15G23 30.44R WCI -2  
MIDDLEBURY* FAIR 19 -2 39 N6 30.51S WCI 11  
RUTLAND* FAIR 23 4 44 N9 30.47F WCI 13  
SPRINGFIELD FAIR 23 3 42 VRB5 30.48F WCI 17  
HIGHGATE* FAIR 17 -3 41 CALM 30.55S  
NEWPORT* FAIR 12 -7 42 W9 30.46S WCI 0  
BENNINGTON FAIR 21 4 47 W8 30.49F WCI 11  
LAKE EDEN* N/A 12 N/A N/A SW5 N/A WCI 4  
 
_____LAKE CHAMPLAIN_____  
 
 
CITY SKY/WX TMP DP RH WIND PRES REMARKS
 
 

 
 
NYZ007-026>031-035-052-083-087-192200-  
_____NORTHERN NEW YORK_____  
 
 
CITY SKY/WX TMP DP RH WIND PRES REMARKS
 
PLATTSBURGH FAIR 20 -6 31 NW7 30.53F WCI 11  
SARANAC LAKE FAIR 14 -4 44 W9G18 30.41F WCI 2  
MASSENA FAIR 18 1 47 SW9 30.58F WCI 7  
OGDENSBURG* FAIR 19 1 45 SW10 30.55F WCI 8  
POTSDAM* FAIR 16 0 48 W9 30.56F WCI 4  
WATERTOWN FAIR 19 9 65 W7 30.60F WCI 10  
FT DRUM FAIR 18 5 56 W7 30.56F WCI 8  
ALBANY FAIR 24 3 40 W18 30.57F WCI 10  
GLENS FALLS FAIR 23 4 44 S7 30.52F WCI 15  
 

 
NHZ002-005-011-192200-  
_____NEW HAMPSHIRE_____  
 
 
CITY SKY/WX TMP DP RH WIND PRES REMARKS
 
LEBANON FAIR 24 -3 30 W13G18 30.46S WCI 12  
KEENE FAIR 28 1 31 NW15 30.46F WCI 16  
MT WASHINGTON MOSUNNY -9 -22 54 W69G75 N/A WCI -48  
PLYMOUTH FAIR 21 -8 27 W14G25 30.45S WCI 8  
WHITEFIELD FAIR 17 -6 35 W13 30.41S WCI 4  
 

 
 
_____REGIONAL QUEBEC LOCATIONS_____  
 
 
CITY SKY/WX TMP DP RH WIND PRES REMARKS
 
MONTREAL MOSUNNY 14 -2 48 W18 30.55S WCI -3  
QUEBEC CITY MOSUNNY 10 0 61 SW15G25 30.42R WCI -6  
SHERBROOKE MOSUNNY 10 -4 52 W13G20 30.44S WCI -5  
 
_____REGIONAL ONTARIO LOCATIONS_____  
 
 
CITY SKY/WX TMP DP RH WIND PRES REMARKS
 
OTTAWA MOSUNNY 16 1 53 NW7 30.54F WCI 6  
 
______KEY______  
VSB - VISIBILITY IN MILES  
WCI - WIND CHILL INDEX  
HX - HEAT INDEX  

 
NNNN  
 
 
CLICK HERE TO GO TO PREVIOUS BULLETINS.

The Nexlab VT Page
The Nexlab NY Page Main Text Page